Regional Weather Roundup
Issued by NWS Charleston, SC

Home | Current Version | Previous Version | Text Only | Print | Product List | Glossary On
Versions: 1 2 3 4 5 6 7 8 9 10 11 12 13 14 15 16 17 18 19 20 21 22 23 24 25 26 27 28 29 30 31 32 33 34 35 36 37 38 39 40 41 42 43 44 45 46 47 48 49 50
000
ASUS42 KCHS 271125
RWRCHS

REGIONAL WEATHER ROUNDUP
NATIONAL WEATHER SERVICE CHARLESTON SC
600 AM EST SAT DEC 27 2014

NOTE: "FAIR" INDICATES FEW OR NO CLOUDS BELOW 12,000 FEET WITH NO
SIGNIFICANT WEATHER AND/OR OBSTRUCTIONS TO VISIBILITY.

NOT ALL STATIONS ARE QUALITY CONTROLLED BY THE NATIONAL
WEATHER SERVICE. USE DATA WITH CAUTION...ESPECIALLY
DEWPOINT OBSERVATIONS.

SCZ027-030-031-034>040-042>050-271200-
...SOUTHEAST SOUTH CAROLINA...

CITY           SKY/WX    TMP DP  RH WIND       PRES   REMARKS
N CHARLESTON   CLEAR     40  39  97 N3        30.29R
WATERFRONT PRK   N/A     48 N/A N/A NE5         N/A
MOUNT PLEASANT FAIR      41  41 100 CALM      30.29R
PINOPOLIS        N/A     50  46  87 VRB2      30.20F
MONCKS CORNER  FAIR      39  37  93 CALM      30.30R
SUMMERVILLE    FAIR      37  37 100 CALM      30.31R FOG
BEAUFORT MCAS  CLEAR     45  43  93 N5        30.29R
BEAUFORT ARPT  FAIR      43  43 100 N5        30.28R FOG
HILTON HEAD IS NOT AVBL
WALTERBORO     SUNNY     36 N/A N/A N3        30.31R HAZE
ALLENDALE      FAIR      37  37 100 CALM      30.30R

...SOUTHERN MIDLANDS AND PEE DEE...

CITY           SKY/WX    TMP DP  RH WIND       PRES   REMARKS
GEORGETOWN     NOT AVBL
KINGSTREE      NOT AVBL
ORANGEBURG     CLEAR     36  33  89 CALM      30.30R
BARNWELL         N/A     34  34 100 CALM      30.32R
AIKEN          FAIR      32  32 100 CALM      30.33R
MANNING        FAIR      34 N/A N/A CALM      30.30S
COLUMBIA       PTCLDY    31  29  92 CALM      30.31R
SUMTER         PTCLDY    36  33  88 CALM      30.29R
FLORENCE       CLEAR     34  32  92 CALM      30.30R
MYRTLE BEACH   CLEAR     39  37  93 CALM      30.31R
N MYRTLE BEACH CLEAR     36  35  96 CALM      30.29S FOG

$$

GAZ063-065-086>088-099>101-113>116-118-119-134>141-150-271200-
...SOUTHEAST GEORGIA...

CITY           SKY/WX    TMP DP  RH WIND       PRES   REMARKS
SAVANNAH ARPT  PTCLDY    42  41  96 N3        30.28R
HUNTER AAF     CLEAR     46  46 100 CALM      30.25S
FORT STEWART   CLEAR     41  39  94 CALM      30.27R
STATESBORO     CLEAR     36  36 100 CALM      30.29S
SYLVANIA       SUNNY     38  38 100 CALM      30.31R
CLAXTON        FAIR      37  37 100 CALM      30.30R

...CSRA...CENTRAL AND FAR SOUTHEAST GEORGIA...

CITY           SKY/WX    TMP DP  RH WIND       PRES   REMARKS
THOMSON        CLEAR     31  31 100 CALM      30.35R
AUGUSTA-BUSH   CLEAR     30  28  92 CALM      30.31R
AUGUSTA-DANIEL CLEAR     41  37  86 N3        30.30R
SWAINSBORO     FAIR      36  36 100 CALM      30.30S
VIDALIA        CLEAR     41  39  93 NE3       30.29S
EASTMAN        FOG       35  35 100 CALM      30.32R VSB 3/4
HAZLEHURST     FAIR      44  43  97 CALM      30.28R
ALMA           CLEAR     43  42  97 CALM      30.27R
WAYCROSS       CLEAR     46  46  99 CALM      30.27R
JESUP          FAIR      45  45 100 CALM      30.28R
BAXLEY         FAIR      43  43 100 CALM      30.27S
BRUNSWICK      CLEAR     50  46  87 CALM      30.27R
SAINT SIMONS   PTCLDY    54  51  90 N7        30.25S

$$

SCZ027-028-034-036>038-045-046-048>050-GAZ119-141-271200-
...LAKE AND SUPPLEMENTAL COASTAL OBSERVATIONS...

STATION/POSITION TIME  TEMP    WIND        PRES    WAVE   SWELL
                       AIR SEA DIR/SP/G            HT/PER HT/PER/DIR
                 (UTC) (F)     (DEG/KT/KT) (MB)    (FT/S) (FT/S/D)
UPR LAKE MARION  NOT AVBL
WINYAH BAY       1100   44     340/  1     1025.0R
LAKE MURRAY      1100   40        CALM     1025.1F
ACE BASIN NERRS  1100   43        CALM     1025.0S
FORT PULASKI     1100   53 56   40/  4/  5 1025.5R
SAPELO ISLAND    1000   49      20/  5     1024.0S

$$

ANZ835-935-AMZ111-154-330-350-352-354-370-450-454-472-271200-
...C-MAN AND BUOY OBSERVATIONS...

STATION/POSITION TIME  TEMP    WIND        PRES    WAVE   SWELL
                       AIR SEA DIR/SP/G            HT/PER HT/PER/DIR
                 (UTC) (F)     (DEG/KT/KT) (MB)    (FT/S) (FT/S/D)
BUOY 41004       1100   64 73   30/ 12/ 14 1024.3R   3/ 8   2/ 8
BUOY 41008       1100   59 58   50/ 12/ 14 1024.3R   2/ 5   2/ 80/ 9
FOLLY BEACH CMAN 1100   51     360/  6/  7 1026.0R
CAPERS NEARSHORE 1000   54      40/ 10/ 10   N/A
FRIPP NEARSHORE  NOT AVBL


STATION/POSITION TIME  TEMP    WIND        PRES    WAVE   SWELL
                       AIR SEA DIR/SP/G            HT/PER HT/PER/DIR
                 (UTC) (F)     (DEG/KT/KT) (MB)    (FT/S) (FT/S/D)
5E ST. MARYS GA  1100      61                N/A     3/ 5
FRYING PAN BUOY  1100   60 69   40/  8/ 10 1026.0R   2/ 8   2/110/ 8
BUOY 41025       1100   55                 1025.9R   2/ 8
CAPE LOOKOUT NC  1100   52      30/  1/  1 1025.7R
BUOY 41002       1045   68 74   70/  8/ 12 1025.1S   3/12   3/ 60/12
BUOY 41010       1100   74 76  110/  8/ 10 1022.6R   3/14   3/ 50/14
ST AUGUSTINE FL  1100   62     340/ 10/ 11 1024.0R


$$



USA.gov is the U.S. government's official web portal to all federal, state and local government web resources and services.